Retour au catalogue

STARLINK-35908

ActifCommunicationsVLEO
NORAD 66639·PAYLOAD·🇺🇸 United States

Lancé Nov 23, 2025 depuis Vandenberg Space Force Base

Loading…

Prochains Passages (prochaines 24 heures)

TLE

FraisSource: CelesTrak SupGP

Époque: Sep 15, 2026, 03:30 UTC

1 66639C 25271Y   26258.14631944  .00060033  00000+0  17717-2 0  2586
2 66639  53.1583 338.8357 0001162 106.4904  76.6729 15.34395897    10

Suivez STARLINK-35908 en temps réel avec AllMySat

Download on the App Store